| time (UTC) | temp C | wind direction | speed KPH | gust KPH | rain 1hr cm | rain 24hr cm | rain mn cm | humidity % | barometer mb |
| 20260903213008 | 23 | 133 | 0.0 | 0.0 | 0.00 | 0.00 | 0.00 | 53 | 1014.8 |
| 20260903211558 | 23 | 133 | 0.0 | 0.0 | 0.00 | 0.00 | 0.00 | 55 | 1014.8 |
| 20260903210056 | 23 | 133 | 0.0 | 0.0 | 0.00 | 0.00 | 0.00 | 59 | 1014.8 |
| 20260903204555 | 23 | 133 | 0.0 | 0.0 | 0.00 | 0.00 | 0.00 | 60 | 1014.8 |
| 20260903203052 | 23 | 133 | 0.0 | 0.0 | 0.00 | 0.00 | 0.00 | 60 | 1014.8 |
| 20260903201542 | 23 | 133 | 0.0 | 0.0 | 0.00 | 0.00 | 0.00 | 57 | 1014.9 |
| 20260903200045 | 23 | 133 | 0.0 | 0.0 | 0.00 | 0.00 | 0.00 | 55 | 1014.8 |
| 20260903194541 | 23 | 130 | 0.0 | 0.0 | 0.00 | 0.00 | 0.00 | 54 | 1014.8 |
| 20260903193035 | 23 | 123 | 0.0 | 0.0 | 0.00 | 0.00 | 0.00 | 54 | 1014.6 |
| 20260903191533 | 23 | 124 | 0.0 | 0.0 | 0.00 | 0.00 | 0.00 | 52 | 1014.6 |
| 20260903190024 | 23 | 52 | 0.0 | 0.0 | 0.00 | 0.00 | 0.00 | 52 | 1014.6 |
| 20260903184519 | 23 | 52 | 0.0 | 0.0 | 0.00 | 0.00 | 0.00 | 52 | 1014.5 |
| 20260903183020 | 23 | 52 | 0.0 | 0.0 | 0.00 | 0.00 | 0.00 | 52 | 1014.3 |
| 20260903181510 | 23 | 44 | 0.0 | 0.0 | 0.00 | 0.00 | 0.00 | 52 | 1014.2 |
| 20260903180013 | 23 | 42 | 0.0 | 0.0 | 0.00 | 0.00 | 0.00 | 52 | 1014.0 |
| 20260903174502 | 24 | 44 | 0.0 | 0.0 | 0.00 | 0.00 | 0.00 | 52 | 1014.0 |
| 20260903173059 | 24 | 42 | 0.0 | 0.0 | 0.00 | 0.00 | 0.00 | 51 | 1013.9 |
| 20260903171556 | 24 | 44 | 0.0 | 0.0 | 0.00 | 0.00 | 0.00 | 51 | 1014.1 |
| 20260903170049 | 25 | 44 | 0.0 | 0.0 | 0.00 | 0.00 | 0.00 | 51 | 1013.8 |
| 20260903164546 | 25 | 24 | 0.0 | 0.0 | 0.00 | 0.00 | 0.00 | 51 | 1013.7 |
| 20260903163044 | 25 | 54 | 3.2 | 0.0 | 0.00 | 0.00 | 0.00 | 49 | 1013.6 |
| 20260903161534 | 25 | 88 | 3.2 | 0.0 | 0.00 | 0.00 | 0.00 | 49 | 1013.9 |
| 20260903160031 | 25 | 55 | 4.8 | 0.0 | 0.00 | 0.00 | 0.00 | 48 | 1013.9 |
| 20260903154526 | 25 | 66 | 4.8 | 0.0 | 0.00 | 0.00 | 0.00 | 48 | 1014.0 |
| 20260903153027 | 25 | 34 | 1.6 | 0.0 | 0.00 | 0.00 | 0.00 | 48 | 1014.1 |
| 20260903151524 | 26 | 32 | 3.2 | 0.0 | 0.00 | 0.00 | 0.00 | 49 | 1013.9 |
| 20260903150014 | 25 | 32 | 4.8 | 0.0 | 0.00 | 0.00 | 0.00 | 50 | 1014.0 |
| 20260903144508 | 26 | 52 | 4.8 | 0.0 | 0.00 | 0.00 | 0.00 | 48 | 1014.0 |
| 20260903143010 | 26 | 13 | 1.6 | 0.0 | 0.00 | 0.00 | 0.00 | 47 | 1014.1 |
| 20260903141601 | 26 | 64 | 4.8 | 0.0 | 0.00 | 0.00 | 0.00 | 48 | 1014.3 |
| 20260903140055 | 25 | 23 | 6.4 | 0.0 | 0.00 | 0.00 | 0.00 | 50 | 1014.2 |
| 20260903134550 | 26 | 69 | 4.8 | 0.0 | 0.00 | 0.00 | 0.00 | 49 | 1014.3 |
| 20260903133047 | 25 | 44 | 4.8 | 0.0 | 0.00 | 0.00 | 0.00 | 49 | 1014.4 |
| 20260903131542 | 26 | 62 | 6.4 | 0.0 | 0.00 | 0.00 | 0.00 | 49 | 1014.3 |
| 20260903130053 | 25 | 75 | 4.8 | 0.0 | 0.00 | 0.00 | 0.00 | 51 | 1014.3 |
| 20260903124532 | 25 | 120 | 4.8 | 0.0 | 0.00 | 0.00 | 0.00 | 50 | 1014.5 |
| 20260903123030 | 25 | 349 | 6.4 | 0.0 | 0.00 | 0.00 | 0.00 | 50 | 1014.6 |
| 20260903121525 | 25 | 62 | 8.0 | 0.0 | 0.00 | 0.00 | 0.00 | 50 | 1014.3 |
| 20260903120021 | 25 | 88 | 6.4 | 0.0 | 0.00 | 0.00 | 0.00 | 50 | 1014.3 |
| 20260903114515 | 25 | 44 | 8.0 | 0.0 | 0.00 | 0.00 | 0.00 | 50 | 1014.5 |
| 20260903113024 | 25 | 124 | 4.8 | 0.0 | 0.00 | 0.00 | 0.00 | 53 | 1014.7 |
| 20260903111507 | 24 | 48 | 9.7 | 0.0 | 0.00 | 0.00 | 0.00 | 49 | 1015.0 |
| 20260903110002 | 24 | 73 | 6.4 | 0.0 | 0.00 | 0.00 | 0.00 | 54 | 1015.3 |
| 20260903104558 | 24 | 123 | 8.0 | 0.0 | 0.00 | 0.00 | 0.00 | 56 | 1015.4 |
| 20260903103053 | 24 | 13 | 6.4 | 0.0 | 0.00 | 0.00 | 0.00 | 57 | 1015.4 |
| 20260903101552 | 24 | 78 | 8.0 | 0.0 | 0.00 | 0.00 | 0.00 | 57 | 1015.5 |
| 20260903100045 | 24 | 73 | 8.0 | 0.0 | 0.00 | 0.00 | 0.00 | 58 | 1015.5 |
| 20260903094551 | 23 | 66 | 6.4 | 0.0 | 0.00 | 0.00 | 0.00 | 58 | 1015.5 |
| 20260903093038 | 24 | 52 | 4.8 | 0.0 | 0.00 | 0.00 | 0.00 | 58 | 1015.5 |
| 20260903091531 | 23 | 54 | 4.8 | 0.0 | 0.00 | 0.00 | 0.00 | 59 | 1015.6 |
| 20260903090027 | 23 | 37 | 4.8 | 0.0 | 0.00 | 0.00 | 0.00 | 59 | 1015.6 |
| 20260903084523 | 23 | 61 | 3.2 | 0.0 | 0.00 | 0.00 | 0.00 | 60 | 1015.6 |
| 20260903083020 | 23 | 97 | 4.8 | 0.0 | 0.00 | 0.00 | 0.00 | 62 | 1015.5 |
| 20260903081513 | 22 | 76 | 4.8 | 0.0 | 0.00 | 0.00 | 0.00 | 62 | 1015.4 |
| 20260903080010 | 22 | 72 | 4.8 | 0.0 | 0.00 | 0.00 | 0.00 | 62 | 1015.3 |
| 20260903074505 | 22 | 38 | 4.8 | 0.0 | 0.00 | 0.00 | 0.00 | 62 | 1015.2 |
| 20260903073111 | 22 | 44 | 3.2 | 0.0 | 0.00 | 0.00 | 0.00 | 65 | 1015.2 |
| 20260903071557 | 22 | 45 | 0.0 | 0.0 | 0.00 | 0.00 | 0.00 | 64 | 1015.1 |
| 20260903070052 | 22 | 17 | 0.0 | 0.0 | 0.00 | 0.00 | 0.00 | 64 | 1014.9 |
| 20260903064547 | 22 | 25 | 0.0 | 0.0 | 0.00 | 0.00 | 0.00 | 68 | 1014.8 |
| 20260903063043 | 21 | 23 | 0.0 | 0.0 | 0.00 | 0.00 | 0.00 | 70 | 1014.9 |
| 20260903061550 | 21 | 0 | 0.0 | 0.0 | 0.00 | 0.00 | 0.00 | 70 | 1014.8 |
| 20260903060035 | 21 | 6 | 0.0 | 0.0 | 0.00 | 0.00 | 0.00 | 71 | 1014.6 |
| 20260903054542 | 21 | 6 | 0.0 | 0.0 | 0.00 | 0.00 | 0.00 | 72 | 1014.7 |
| 20260903053031 | 21 | 4 | 0.0 | 0.0 | 0.00 | 0.00 | 0.00 | 73 | 1014.7 |
| 20260903051522 | 20 | 8 | 0.0 | 0.0 | 0.00 | 0.00 | 0.00 | 74 | 1014.5 |
| 20260903050015 | 20 | 0 | 0.0 | 0.0 | 0.00 | 0.00 | 0.00 | 75 | 1014.3 |
| 20260903044509 | 20 | 24 | 0.0 | 0.0 | 0.00 | 0.00 | 0.00 | 74 | 1014.2 |
| 20260903043009 | 21 | 24 | 0.0 | 0.0 | 0.00 | 0.00 | 0.00 | 72 | 1014.1 |
| 20260903041502 | 21 | 24 | 0.0 | 0.0 | 0.00 | 0.00 | 0.00 | 73 | 1014.0 |
| 20260903040100 | 21 | 24 | 0.0 | 0.0 | 0.00 | 0.00 | 0.00 | 74 | 1014.0 |
| 20260903034553 | 21 | 24 | 0.0 | 0.0 | 0.00 | 0.00 | 0.00 | 73 | 1014.0 |
| 20260903033101 | 21 | 24 | 0.0 | 0.0 | 0.00 | 0.00 | 0.00 | 72 | 1014.1 |
| 20260903031545 | 21 | 354 | 0.0 | 0.0 | 0.00 | 0.00 | 0.00 | 68 | 1014.1 |
| 20260903030044 | 21 | 318 | 0.0 | 0.0 | 0.00 | 0.00 | 0.00 | 72 | 1014.1 |
| 20260903024542 | 21 | 318 | 0.0 | 0.0 | 0.00 | 0.00 | 0.00 | 73 | 1014.1 |
| 20260903023032 | 21 | 318 | 0.0 | 0.0 | 0.00 | 0.00 | 0.00 | 73 | 1014.3 |
| 20260903021532 | 21 | 318 | 0.0 | 0.0 | 0.00 | 0.00 | 0.00 | 72 | 1014.0 |
| 20260903020027 | 21 | 318 | 0.0 | 0.0 | 0.00 | 0.00 | 0.00 | 72 | 1013.9 |
| 20260903014518 | 21 | 318 | 0.0 | 0.0 | 0.00 | 0.00 | 0.00 | 71 | 1013.8 |
| 20260903013013 | 21 | 318 | 0.0 | 0.0 | 0.00 | 0.00 | 0.00 | 73 | 1013.8 |
| 20260903011512 | 21 | 318 | 0.0 | 0.0 | 0.00 | 0.00 | 0.00 | 73 | 1013.5 |
| 20260903010005 | 21 | 318 | 0.0 | 0.0 | 0.00 | 0.00 | 0.00 | 72 | 1013.4 |
| 20260903004501 | 21 | 318 | 0.0 | 0.0 | 0.00 | 0.00 | 0.00 | 70 | 1013.5 |
| 20260903003104 | 21 | 318 | 0.0 | 0.0 | 0.00 | 0.00 | 0.00 | 67 | 1013.6 |
| 20260903001553 | 21 | 318 | 0.0 | 0.0 | 0.00 | 0.00 | 0.00 | 66 | 1013.7 |
| 20260903000053 | 21 | 318 | 0.0 | 0.0 | 0.00 | 0.00 | 0.00 | 66 | 1013.9 |
| 20260902234543 | 21 | 284 | 0.0 | 0.0 | 0.00 | 0.00 | 0.00 | 65 | 1014.0 |
| 20260902233040 | 21 | 275 | 0.0 | 0.0 | 0.00 | 0.00 | 0.00 | 65 | 1013.9 |
| 20260902231545 | 21 | 275 | 0.0 | 0.0 | 0.00 | 0.00 | 0.00 | 68 | 1013.9 |
| 20260902230031 | 21 | 275 | 0.0 | 0.0 | 0.00 | 0.00 | 0.00 | 69 | 1013.9 |
| 20260902224527 | 21 | 275 | 0.0 | 0.0 | 0.00 | 0.00 | 0.00 | 67 | 1013.8 |
| 20260902223023 | 22 | 274 | 0.0 | 0.0 | 0.00 | 0.00 | 0.00 | 61 | 1013.7 |
| 20260902221521 | 22 | 274 | 0.0 | 0.0 | 0.00 | 0.00 | 0.00 | 61 | 1013.7 |
| 20260902220018 | 21 | 285 | 0.0 | 0.0 | 0.00 | 0.00 | 0.00 | 64 | 1013.7 |
| 20260902214513 | 21 | 272 | 3.2 | 0.0 | 0.00 | 0.00 | 0.00 | 65 | 1013.5 |